Home > Weather > Hallein > Past weeks

Flag for Austria Weather for the Past 2 Weeks in Hallein, Salzburg, Austria

Now
43 °F

Passing clouds.


Feels Like: 37 °F
Forecast: 35 / 47 °F
Wind: 10 mph from Southeast

Location: Salzburg-Flughafen

Current Time: Feb 8, 2016 at 10:13:11 AM

Latest Report: Feb 8, 2016 at 9:50 AM


Visibility: N/A

Pressure: 29.83 "Hg

Humidity: 81%

Dew point: 37 °F

Location of HalleinLocation

Historic Weather in Hallein — Graph

°F

Hallein Temperature Yesterday

Maximum temperature yesterday: 57 °F (at 12:50 PM)
Minimum temperature yesterday: 39 °F (at 12:50 AM)
Average temperature yesterday: 49 °F

High & Low Weather Summary for the Past Weeks

 TemperatureHumidityPressure
High59 °F (Feb 1, 1:50 PM)100% (Jan 24, 8:20 AM)30.57 "Hg (Jan 24, 8:20 AM)
Low30 °F (Jan 24, 8:20 AM)36% (Feb 7, 10:20 AM)29.62 "Hg (Feb 7, 1:50 PM)
Average42 °F81%30.19 "Hg
* Reported Jan 24 8:20 AM — Feb 8 8:50 AM, Hallein, Weather by CustomWeather, © 2016

Note: Actual official high and low records may vary slightly from our data, if they occured in-between our weather recording intervals... More about our weather records

Advertising

Hallein Weather History for the Previous 24 Hours

 ConditionsComfort  
Time TempWeatherWind HumidityBarometerVisibility
8:50 AM
Mon, Feb 8
39 °FPassing clouds.9 mph87%29.86 "HgN/A
8:20 AM39 °FScattered clouds.9 mph81%29.86 "HgN/A
7:50 AM39 °FPartly sunny.9 mph87%29.86 "HgN/A
7:20 AM37 °FPassing clouds.12 mph93%29.86 "HgN/A
6:50 AM37 °FPartly cloudy.13 mph93%29.86 "HgN/A
6:20 AM37 °FPassing clouds.14 mph93%29.86 "HgN/A
5:50 AM39 °FPassing clouds.10 mph87%29.89 "HgN/A
5:20 AM39 °FPassing clouds.13 mph87%29.89 "HgN/A
4:50 AM39 °FPassing clouds.15 mph87%29.89 "HgN/A
4:20 AM39 °FPassing clouds.9 mph87%29.92 "HgN/A
3:50 AM39 °FSprinkles. Passing clouds.12 mph87%29.92 "HgN/A
2:50 AM39 °FPartly cloudy.10 mph87%29.95 "HgN/A
2:20 AM41 °FPartly cloudy.5 mph87%29.95 "HgN/A
1:50 AM41 °FLight rain. Passing clouds.8 mph87%29.95 "HgN/A
12:50 AM43 °FPartly cloudy.7 mph76%29.95 "HgN/A
11:50 PM
Sun, Feb 7
45 °FPassing clouds.9 mph66%29.92 "HgN/A
11:20 PM45 °FPassing clouds.14 mph71%29.92 "HgN/A
10:50 PM45 °FPartly cloudy.8 mph76%29.89 "HgN/A
10:20 PM46 °FPassing clouds.5 mph71%29.89 "HgN/A
9:50 PM46 °FPartly cloudy.3 mph66%29.89 "HgN/A
9:20 PM46 °FPassing clouds.5 mph66%29.86 "HgN/A
8:50 PM46 °FPassing clouds.6 mph66%29.86 "HgN/A
8:20 PM48 °FPassing clouds.9 mph62%29.83 "HgN/A
7:50 PM48 °FPartly cloudy.13 mph62%29.80 "HgN/A
7:20 PM50 °FPartly cloudy.16 mph54%29.80 "HgN/A
6:50 PM54 °FPartly cloudy.9 mph41%29.77 "HgN/A
6:20 PM54 °FPartly cloudy.13 mph41%29.71 "HgN/A
5:50 PM54 °FPartly cloudy.9 mph41%29.71 "HgN/A
5:20 PM54 °FPartly cloudy.8 mph41%29.71 "HgN/A
4:50 PM55 °FBroken clouds.15 mph38%29.68 "HgN/A
4:20 PM55 °FBroken clouds.14 mph38%29.68 "HgN/A
3:50 PM55 °FPartly sunny.12 mph38%29.65 "HgN/A
3:20 PM57 °FPartly sunny.10 mph36%29.65 "HgN/A
2:50 PM57 °FPartly sunny.15 mph36%29.65 "HgN/A
2:20 PM57 °FPartly sunny.15 mph36%29.65 "HgN/A
1:50 PM57 °FPartly sunny.20 mph36%29.62 "HgN/A
1:20 PM57 °FSunny.15 mph36%29.65 "Hg10 mi
12:50 PM57 °FSunny.18 mph36%29.65 "Hg10 mi
12:20 PM55 °FPassing clouds.15 mph38%29.68 "HgN/A
11:50 AM55 °FSunny.18 mph38%29.68 "Hg10 mi
11:20 AM55 °FSunny.18 mph38%29.71 "Hg10 mi
10:50 AM55 °FSunny.18 mph38%29.71 "Hg10 mi
10:20 AM55 °FSunny.16 mph36%29.71 "Hg10 mi
Weather by CustomWeather, © 2016

See weather overviewHow to use our weather pages